This is the latest recevied weather packets stored in our database for station/object N5ATR. If no packets are shown the sender has not sent any weather packets the latest 10 day(s).
| Time | Temp. | Humidity | Pressure | Rain* | Wind** | Luminosity | Snow |
|---|---|---|---|---|---|---|---|
| 1788506814 | 18.89° C | 61% | 1020.9 hPa | 0 mm | - | 0 W/m² | - |
| 1788506514 | 18.89° C | 60% | 1021.2 hPa | 0 mm | - | 0 W/m² | - |
| 1788506210 | 18.89° C | 59% | 1021.2 hPa | 0 mm | - | 0 W/m² | - |
| 1788505904 | 18.89° C | 58% | 1021 hPa | 0 mm | - | 0 W/m² | - |
| 1788505604 | 18.89° C | 57% | 1021 hPa | 0 mm | - | 0 W/m² | - |
| 1788505298 | 18.89° C | 57% | 1021.2 hPa | 0 mm | - | 0 W/m² | - |
| 1788504998 | 18.89° C | 59% | 1021.2 hPa | 0 mm | - | 0 W/m² | - |
| 1788504696 | 18.89° C | 59% | 1021.2 hPa | 0 mm | - | 0 W/m² | - |
| 1788504390 | 18.89° C | 62% | 1021.2 hPa | 0 mm | - | 0 W/m² | - |
| 1788504090 | 18.89° C | 58% | 1021.2 hPa | 0 mm | - | 0 W/m² | - |
| 1788503786 | 18.33° C | 59% | 1021.3 hPa | 0 mm | - | 0 W/m² | - |
| 1788503482 | 18.33° C | 60% | 1021.2 hPa | 0 mm | - | 0 W/m² | - |
| 1788503178 | 18.33° C | 60% | 1021.2 hPa | 0 mm | - | 0 W/m² | - |
| 1788502873 | 18.33° C | 59% | 1021.4 hPa | 0 mm | - | 0 W/m² | - |
| 1788502569 | 18.33° C | 59% | 1021.4 hPa | 0 mm | - | 0 W/m² | - |
| 1788502265 | 18.89° C | 59% | 1021 hPa | 0 mm | - | 0 W/m² | - |
| 1788501961 | 18.89° C | 59% | 1021.2 hPa | 0 mm | - | 0 W/m² | - |
| 1788501658 | 18.33° C | 59% | 1021.4 hPa | 0 mm | - | 0 W/m² | - |
| 1788501358 | 18.33° C | 59% | 1020.9 hPa | 0 mm | - | 0 W/m² | - |
| 1788501053 | 18.89° C | 59% | 1021.5 hPa | 0 mm | - | 0 W/m² | - |
| 1788500749 | 18.89° C | 59% | 1021.3 hPa | 0 mm | - | 0 W/m² | - |
| 1788500444 | 18.89° C | 59% | 1021.3 hPa | 0 mm | - | 0 W/m² | - |
| 1788500144 | 18.89° C | 58% | 1021.3 hPa | 0 mm | - | 0 W/m² | - |
| 1788499839 | 18.89° C | 58% | 1021.4 hPa | 0 mm | - | 0 W/m² | - |
| 1788499536 | 18.89° C | 58% | 1021.5 hPa | 0 mm | - | 0 W/m² | - |
* Rain latest hour (hover to see other rain measurements)
** Current wind speed in m/s (hover to see current wind gust speed)